Els Cortals - Les Guilleries





Hora UTC 06:15
Temperatura 11.6 ºC
Humitat 94.0 %
Pressió 1020.7 hPa
Pluja 0.2 mm
Velocitat vent 0.0 km/h
Direcció vent SSW

Dades diàries 2021-10-19



Hora UTC (hivern +1h; estiu +2h)
Temperatura (ºC) Humitat (%) Pressió (hPa) Velocitat vent (km/h) Precipitació (mm)
Hora UTC Aire Humitat Pressió Vel. Dir. Vel. Max Dir. Intent. màx 5 min.
00:05 12.8 94.0 1021.1 1.6 WNW 1.6 0.0
00:10 12.8 94.0 1021.1 4.8 WSW 8.0 0.0
00:15 12.8 94.0 1021.2 1.6 WSW 9.7 0.0
00:20 12.8 94.0 1021.1 0.0 W 9.7 0.0
00:25 12.8 94.0 1021.1 0.0 SW 8.0 0.0
00:30 12.8 94.0 1021.1 1.6 NW 9.7 0.0
00:35 12.8 94.0 1021.1 4.8 SW 9.7 0.0
00:40 12.8 94.0 1021.1 1.6 W 9.7 0.0
00:45 12.8 94.0 1021.2 4.8 SW 8.0 0.0
00:50 12.7 94.0 1021.1 3.2 WNW 9.7 0.0
00:55 12.7 94.0 1021.1 0.0 NW 9.7 0.0
01:00 12.7 94.0 1021.1 0.0 WNW 8.0 0.0
01:05 12.6 94.0 1021.1 0.0 WNW 8.0 0.0
01:10 12.3 94.0 1021.1 0.0 WNW 1.6 0.0
01:15 12.2 94.0 1021.1 0.0 WNW 0.0 0.0
01:20 12.1 94.0 1021.1 0.0 WNW 0.0 0.0
01:25 11.9 94.0 1021.1 1.6 WNW 3.2 0.0
01:30 11.9 94.0 1021.0 4.8 WNW 4.8 0.0
01:35 11.9 94.0 1021.0 1.6 WNW 8.0 0.0
01:40 11.9 94.0 1020.9 1.6 WNW 8.0 0.3
01:45 11.8 94.0 1020.9 0.0 WNW 3.2 0.0
01:50 11.7 94.0 1020.9 0.0 WNW 3.2 0.0
01:55 11.6 94.0 1020.9 0.0 WNW 3.2 0.0
02:00 11.5 94.0 1020.9 0.0 WNW 1.6 0.0
02:05 11.4 94.0 1020.9 1.6 NW 3.2 0.0
02:10 11.4 94.0 1020.9 1.6 W 6.4 0.0
02:15 11.4 94.0 1020.9 0.0 WSW 8.0 0.0
02:20 11.6 94.0 1020.9 0.0 WSW 8.0 0.0
02:25 11.7 93.0 1020.9 3.2 WSW 9.7 0.0
02:30 11.9 93.0 1020.9 1.6 W 11.3 0.0
02:35 12.1 93.0 1020.8 0.0 W 12.9 0.0
02:40 12.1 93.0 1020.8 1.6 WSW 12.9 0.0
02:45 12.2 93.0 1020.7 1.6 SW 14.5 0.0
02:50 12.2 94.0 1020.7 6.4 WSW 14.5 0.0
02:55 12.2 93.0 1020.8 0.0 W 9.7 0.0
03:00 12.1 93.0 1020.6 1.6 WSW 8.0 0.0
03:05 12.1 94.0 1020.6 1.6 WSW 8.0 0.0
03:10 12.0 94.0 1020.6 3.2 SW 8.0 0.0
03:15 12.0 94.0 1020.7 1.6 WSW 11.3 0.0
03:20 12.0 94.0 1020.7 1.6 WSW 11.3 0.0
03:25 12.1 93.0 1020.7 0.0 WSW 11.3 0.0
03:30 12.1 93.0 1020.6 9.7 WSW 11.3 0.0
03:35 12.1 93.0 1020.6 1.6 SW 12.9 0.0
03:40 12.1 94.0 1020.6 4.8 W 11.3 0.0
03:45 12.0 94.0 1020.6 3.2 W 12.9 0.0
03:50 11.9 94.0 1020.6 1.6 SW 12.9 0.0
03:55 11.8 94.0 1020.6 0.0 WSW 11.3 0.0
04:00 11.8 94.0 1020.6 3.2 WSW 11.3 0.0
04:05 11.7 94.0 1020.5 1.6 WSW 11.3 0.0
04:10 11.6 94.0 1020.6 3.2 W 8.0 0.0
04:15 11.6 94.0 1020.5 1.6 WSW 9.7 0.0
04:20 11.6 94.0 1020.6 1.6 W 11.3 0.0
04:25 11.7 94.0 1020.6 3.2 WNW 11.3 0.0
04:30 11.7 94.0 1020.6 3.2 WNW 9.7 0.0
04:35 11.7 94.0 1020.6 3.2 WSW 17.7 0.0
04:40 11.8 94.0 1020.7 0.0 WSW 17.7 0.0
04:45 11.7 94.0 1020.7 1.6 WSW 11.3 0.0
04:50 11.7 94.0 1020.8 4.8 SSW 11.3 0.0
04:55 11.7 94.0 1020.7 0.0 SW 11.3 0.0
05:00 11.6 94.0 1020.8 0.0 WSW 8.0 0.0
05:05 11.6 94.0 1020.7 0.0 WSW 6.4 0.0
05:10 11.5 94.0 1020.7 0.0 WNW 3.2 0.0
05:15 11.5 94.0 1020.7 1.6 SW 9.7 0.0
05:20 11.5 94.0 1020.7 6.4 WSW 9.7 0.0
05:25 11.5 94.0 1020.8 6.4 WSW 16.1 0.0
05:30 11.6 94.0 1020.7 6.4 SW 14.5 0.0
05:35 11.7 94.0 1020.8 6.4 WSW 14.5 0.0
05:40 11.7 94.0 1020.7 3.2 SSW 12.9 0.0
05:45 11.8 94.0 1020.7 14.5 WSW 14.5 0.0
05:50 11.8 94.0 1020.8 4.8 WSW 14.5 0.0
05:55 11.8 94.0 1020.8 4.8 WSW 11.3 0.0
06:00 11.8 94.0 1020.8 1.6 WSW 12.9 0.0
06:05 11.7 94.0 1020.8 6.4 WSW 6.4 0.0
06:10 11.6 94.0 1020.8 8.0 SW 8.0 0.0
06:15 11.6 94.0 1020.7 0.0 SSW 9.7 0.0
Màxima 12.9 94.0 1021.2 14.5 WSW 17.7 0.3
Mínima 11.4 93.0 1020.5
Total 0.3